Weather History for Mount Sterling, KY

Change the Weather History Date:

Friday, February 28, 2014

  Actual Average Record
Temperature  
Mean Temperature 26 °F -  
Max Temperature 39 °F 51 °F 39 °F (2014)
Min Temperature 14 °F 30 °F 14 °F (2014)
Degree Days  
Heating Degree Days 38    
Moisture  
Dew Point 8 °F    
Average Humidity 49    
Maximum Humidity 67    
Minimum Humidity 28    
Precipitation  
Precipitation 0.00 in - - ()
Sea Level Pressure  
Sea Level Pressure 30.15 in    
Wind  
Wind Speed 6 mph (ESE)    
Max Wind Speed 12 mph    
Max Gust Speed -    
Visibility 10 miles    
Events      
Averages and records for this station are not official NWS values.
T = Trace of Precipitation, MM = Missing Value Source: NWS Daily Summary

Daily Weather History Graph

Daily Weather History Graph

Search for Another Location

Airport:

Trip Planner

Search our weather history database for the weather conditions in past years. The results will help you decide how hot, cold, wet, or windy it might be!

Date:

Astronomy

Feb. 28, 2014 Rise Set
Actual Time 7:09 AM EST 6:28 PM EST
Civil Twilight 6:42 AM EST 6:54 PM EST
Nautical Twilight 6:12 AM EST 7:25 PM EST
Astronomical Twilight 5:41 AM EST 7:55 PM EST
Moon 6:22 AM EST 6:03 PM EST
Length of Visible Light 12h 12m
Length of Day
11h 19m
Waning Crescent, 1% of the Moon is Illuminated
Feb 28
Waning Crescent
Mar 1
New
Mar 8
First Quarter
Mar 16
Full
Mar 23
Last Quarter

Hourly Weather History & Observations

Time (EST) Temp. Windchill Dew Point Humidity Pressure Visibility Wind Dir Wind Speed Gust Speed Precip Events Conditions
12:15 AM 17.6 °F 9.3 °F 5.0 °F 58% 30.13 in 10.0 mi ENE 5.8 mph - N/A   Clear
12:35 AM 17.6 °F 8.2 °F 5.0 °F 58% 30.14 in 10.0 mi ENE 6.9 mph - N/A   Clear
12:55 AM 17.6 °F 9.3 °F 5.0 °F 58% 30.13 in 10.0 mi ENE 5.8 mph - N/A   Clear
1:15 AM 17.6 °F 9.3 °F 5.0 °F 58% 30.13 in 10.0 mi ENE 5.8 mph - N/A   Clear
1:35 AM 15.8 °F 7.2 °F 5.0 °F 62% 30.13 in 10.0 mi ENE 5.8 mph - N/A   Clear
1:55 AM 15.8 °F 7.2 °F 5.0 °F 62% 30.13 in 10.0 mi ENE 5.8 mph - N/A   Clear
2:15 AM 15.8 °F 6.1 °F 5.0 °F 62% 30.14 in 10.0 mi ENE 6.9 mph - N/A   Clear
2:35 AM 15.8 °F 7.2 °F 5.0 °F 62% 30.15 in 10.0 mi NE 5.8 mph - N/A   Clear
2:55 AM 14.0 °F 5.1 °F 5.0 °F 67% 30.15 in 10.0 mi ENE 5.8 mph - N/A   Clear
3:10 AM 14.0 °F 3.9 °F 5.0 °F 67% 30.15 in 10.0 mi ENE 6.9 mph - N/A   Clear
3:35 AM 14.0 °F 3.9 °F 5.0 °F 67% 30.15 in 10.0 mi ENE 6.9 mph - N/A   Clear
3:55 AM 14.0 °F 3.9 °F 5.0 °F 67% 30.15 in 10.0 mi East 6.9 mph - N/A   Clear
4:15 AM 14.0 °F 2.9 °F 5.0 °F 67% 30.15 in 10.0 mi East 8.1 mph - N/A   Clear
4:35 AM 14.0 °F 3.9 °F 5.0 °F 67% 30.16 in 10.0 mi East 6.9 mph - N/A   Clear
4:55 AM 14.0 °F 3.9 °F 5.0 °F 67% 30.16 in 10.0 mi East 6.9 mph - N/A   Clear
5:15 AM 14.0 °F 3.9 °F 5.0 °F 67% 30.17 in 10.0 mi East 6.9 mph - N/A   Clear
5:35 AM 14.0 °F 2.0 °F 5.0 °F 67% 30.17 in 10.0 mi East 9.2 mph - N/A   Clear
5:55 AM 14.0 °F 3.9 °F 5.0 °F 67% 30.18 in 10.0 mi East 6.9 mph - N/A   Clear
6:15 AM 14.0 °F 5.1 °F 5.0 °F 67% 30.19 in 10.0 mi East 5.8 mph - N/A   Clear
6:35 AM 14.0 °F 3.9 °F 5.0 °F 67% 30.18 in 10.0 mi East 6.9 mph - N/A   Clear
6:55 AM 14.0 °F 3.9 °F 5.0 °F 67% 30.19 in 10.0 mi East 6.9 mph - N/A   Clear
7:15 AM 14.0 °F 5.1 °F 5.0 °F 67% 30.19 in 10.0 mi East 5.8 mph - N/A   Clear
7:35 AM 14.0 °F 3.9 °F 5.0 °F 67% 30.19 in 10.0 mi East 6.9 mph - N/A   Clear
7:55 AM 15.8 °F 6.1 °F 5.0 °F 62% 30.21 in 10.0 mi East 6.9 mph - N/A   Clear
8:15 AM 17.6 °F 5.7 °F 6.8 °F 63% 30.21 in 10.0 mi East 10.4 mph - N/A   Clear
8:35 AM 17.6 °F 5.0 °F 6.8 °F 63% 30.22 in 10.0 mi ESE 11.5 mph - N/A   Clear
8:55 AM 17.6 °F 9.3 °F 6.8 °F 63% 30.23 in 10.0 mi ESE 5.8 mph - N/A   Clear
9:15 AM 19.4 °F 11.5 °F 8.6 °F 63% 30.23 in 10.0 mi East 5.8 mph - N/A   Scattered Clouds
9:35 AM 19.4 °F 10.4 °F 8.6 °F 63% 30.23 in 10.0 mi ESE 6.9 mph - N/A   Scattered Clouds
9:55 AM 21.2 °F 11.7 °F 8.6 °F 58% 30.23 in 10.0 mi ESE 8.1 mph - N/A   Scattered Clouds
10:15 AM 23.0 °F 18.4 °F 8.6 °F 54% 30.23 in 10.0 mi SE 3.5 mph - N/A   Scattered Clouds
10:35 AM 24.8 °F 19.1 °F 10.4 °F 54% 30.23 in 10.0 mi ESE 4.6 mph - N/A   Clear
10:55 AM 26.6 °F 20.0 °F 10.4 °F 51% 30.23 in 10.0 mi SE 5.8 mph - N/A   Clear
11:15 AM 28.4 °F 24.6 °F 10.4 °F 47% 30.23 in 10.0 mi East 3.5 mph - N/A   Clear
11:35 AM 30.2 °F 24.3 °F 10.4 °F 44% 30.23 in 10.0 mi SSE 5.8 mph - N/A   Clear
11:55 AM 30.2 °F 24.3 °F 10.4 °F 44% 30.22 in 10.0 mi SSE 5.8 mph - N/A   Clear
12:15 PM 32.0 °F 25.6 °F 10.4 °F 41% 30.21 in 10.0 mi ESE 6.9 mph - N/A   Clear
12:35 PM 32.0 °F 26.4 °F 8.6 °F 38% 30.20 in 10.0 mi SE 5.8 mph - N/A   Clear
12:55 PM 33.8 °F 27.0 °F 8.6 °F 35% 30.19 in 10.0 mi SE 8.1 mph - N/A   Clear
1:15 PM 33.8 °F 27.7 °F 8.6 °F 35% 30.18 in 10.0 mi SSE 6.9 mph - N/A   Clear
1:35 PM 33.8 °F 27.7 °F 8.6 °F 35% 30.17 in 10.0 mi SSE 6.9 mph - N/A   Clear
1:55 PM 35.6 °F 31.7 °F 8.6 °F 33% 30.16 in 10.0 mi SSE 4.6 mph - N/A   Clear
2:15 PM 35.6 °F 30.7 °F 8.6 °F 33% 30.15 in 10.0 mi SSE 5.8 mph - N/A   Clear
2:35 PM 37.4 °F 32.1 °F 8.6 °F 30% 30.15 in 10.0 mi East 6.9 mph - N/A   Clear
2:55 PM 37.4 °F 32.1 °F 8.6 °F 30% 30.15 in 10.0 mi SSE 6.9 mph - N/A   Clear
3:15 PM 37.4 °F 34.9 °F 8.6 °F 30% 30.14 in 10.0 mi ESE 3.5 mph - N/A   Clear
3:35 PM 37.4 °F 33.8 °F 6.8 °F 28% 30.14 in 10.0 mi ESE 4.6 mph - N/A   Clear
3:55 PM 39.2 °F 35.0 °F 8.6 °F 28% 30.13 in 10.0 mi SE 5.8 mph - N/A   Clear
4:15 PM 39.2 °F 35.9 °F 8.6 °F 28% 30.12 in 10.0 mi ESE 4.6 mph - N/A   Clear
4:35 PM 39.2 °F 33.6 °F 10.4 °F 31% 30.12 in 10.0 mi ESE 8.1 mph - N/A   Clear
4:55 PM 39.2 °F 35.0 °F 10.4 °F 31% 30.11 in 10.0 mi East 5.8 mph - N/A   Clear
5:15 PM 39.2 °F 34.2 °F 10.4 °F 31% 30.10 in 10.0 mi ESE 6.9 mph - N/A   Clear
5:35 PM 39.2 °F 33.6 °F 10.4 °F 31% 30.09 in 10.0 mi ESE 8.1 mph - N/A   Clear
5:55 PM 37.4 °F 31.4 °F 10.4 °F 33% 30.08 in 10.0 mi SE 8.1 mph - N/A   Clear
6:15 PM 37.4 °F 32.8 °F 10.4 °F 33% 30.08 in 10.0 mi ESE 5.8 mph - N/A   Clear
6:35 PM 35.6 °F 31.7 °F 10.4 °F 35% 30.08 in 10.0 mi ESE 4.6 mph - N/A   Clear
6:55 PM 35.6 °F 30.7 °F 10.4 °F 35% 30.08 in 10.0 mi SE 5.8 mph - N/A   Clear
7:15 PM 35.6 °F 30.7 °F 10.4 °F 35% 30.08 in 10.0 mi SE 5.8 mph - N/A   Clear
7:35 PM 33.8 °F 29.6 °F 10.4 °F 38% 30.08 in 10.0 mi ESE 4.6 mph - N/A   Clear
7:55 PM 33.8 °F 29.6 °F 10.4 °F 38% 30.08 in 10.0 mi ESE 4.6 mph - N/A   Clear
8:15 PM 32.0 °F 28.7 °F 10.4 °F 41% 30.08 in 10.0 mi ESE 3.5 mph - N/A   Clear
8:35 PM 32.0 °F 27.5 °F 10.4 °F 41% 30.08 in 10.0 mi ESE 4.6 mph - N/A   Clear
8:55 PM 32.0 °F 27.5 °F 10.4 °F 41% 30.08 in 10.0 mi ESE 4.6 mph - N/A   Clear
9:15 PM 32.0 °F 27.5 °F 10.4 °F 41% 30.08 in 10.0 mi ESE 4.6 mph - N/A   Clear
9:35 PM 32.0 °F 27.5 °F 10.4 °F 41% 30.09 in 10.0 mi ESE 4.6 mph - N/A   Clear
9:55 PM 32.0 °F 27.5 °F 10.4 °F 41% 30.09 in 10.0 mi ESE 4.6 mph - N/A   Clear
10:15 PM 32.0 °F 27.5 °F 10.4 °F 41% 30.10 in 10.0 mi ESE 4.6 mph - N/A   Clear
10:35 PM 32.0 °F 28.7 °F 10.4 °F 41% 30.10 in 10.0 mi ESE 3.5 mph - N/A   Scattered Clouds
10:55 PM 32.0 °F 26.4 °F 10.4 °F 41% 30.11 in 10.0 mi ESE 5.8 mph - N/A   Scattered Clouds
11:15 PM 32.0 °F 26.4 °F 10.4 °F 41% 30.10 in 10.0 mi SE 5.8 mph - N/A   Mostly Cloudy
11:35 PM 32.0 °F 26.4 °F 10.4 °F 41% 30.11 in 10.0 mi SE 5.8 mph - N/A   Mostly Cloudy
11:55 PM 32.0 °F 26.4 °F 10.4 °F 41% 30.11 in 10.0 mi SE 5.8 mph - N/A   Scattered Clouds